| time (UTC) | temp F | wind direction | speed MPH | gust MPH | rain 1hr in | rain 24hr in | rain mn in | humidity % | barometer mb |
| 20260506011544 | 49 | 276 | 0.0 | 0.0 | 0.00 | 0.09 | 0.01 | 90 | 1007.3 |
| 20260506010028 | 49 | 276 | 0.0 | 0.0 | 0.00 | 0.09 | 0.01 | 90 | 1007.3 |
| 20260506004536 | 49 | 276 | 0.0 | 0.0 | 0.00 | 0.09 | 0.01 | 90 | 1007.5 |
| 20260506003026 | 49 | 276 | 0.0 | 0.0 | 0.00 | 0.09 | 0.01 | 90 | 1007.6 |
| 20260506001524 | 49 | 276 | 0.0 | 0.0 | 0.00 | 0.09 | 0.01 | 90 | 1007.9 |
| 20260506000022 | 49 | 276 | 0.0 | 0.0 | 0.00 | 0.09 | 0.01 | 90 | 1008.1 |
| 20260505234522 | 49 | 276 | 0.0 | 0.0 | 0.00 | 0.09 | 0.01 | 90 | 1007.9 |
| 20260505233029 | 49 | 276 | 0.0 | 0.0 | 0.00 | 0.09 | 0.01 | 90 | 1008.0 |
| 20260505231522 | 50 | 276 | 0.0 | 0.0 | 0.00 | 0.09 | 0.01 | 90 | 1008.0 |
| 20260505230017 | 50 | 276 | 0.0 | 0.0 | 0.01 | 0.09 | 0.01 | 90 | 1008.2 |
| 20260505224517 | 50 | 276 | 0.0 | 0.0 | 0.02 | 0.09 | 0.01 | 89 | 1008.2 |
| 20260505223019 | 50 | 276 | 0.0 | 0.0 | 0.02 | 0.09 | 0.01 | 89 | 1008.1 |
| 20260505221514 | 50 | 276 | 0.0 | 0.0 | 0.03 | 0.09 | 0.01 | 89 | 1008.2 |
| 20260505220022 | 50 | 276 | 0.0 | 0.0 | 0.02 | 0.09 | 0.00 | 89 | 1008.3 |
| 20260505214524 | 50 | 276 | 0.0 | 0.0 | 0.03 | 0.08 | 0.08 | 89 | 1008.5 |
| 20260505213018 | 50 | 276 | 0.0 | 0.0 | 0.02 | 0.07 | 0.07 | 89 | 1008.6 |
| 20260505211511 | 51 | 276 | 0.0 | 0.0 | 0.02 | 0.06 | 0.06 | 88 | 1008.7 |
| 20260505210010 | 51 | 276 | 0.0 | 0.0 | 0.02 | 0.06 | 0.06 | 88 | 1008.7 |
| 20260505204509 | 51 | 276 | 0.0 | 0.0 | 0.00 | 0.05 | 0.05 | 88 | 1008.6 |
| 20260505203011 | 51 | 276 | 0.0 | 0.0 | 0.00 | 0.05 | 0.05 | 88 | 1008.5 |
| 20260505201509 | 51 | 276 | 0.0 | 0.0 | 0.00 | 0.05 | 0.05 | 88 | 1008.5 |
| 20260505200008 | 51 | 277 | 0.0 | 0.0 | 0.00 | 0.05 | 0.05 | 87 | 1008.2 |
| 20260505194516 | 52 | 277 | 0.0 | 0.0 | 0.00 | 0.05 | 0.05 | 87 | 1007.9 |
| 20260505193009 | 52 | 275 | 0.0 | 0.0 | 0.00 | 0.05 | 0.05 | 87 | 1007.9 |
| 20260505191507 | 52 | 275 | 0.0 | 0.0 | 0.00 | 0.05 | 0.05 | 87 | 1007.9 |
| 20260505190006 | 53 | 284 | 0.0 | 0.0 | 0.00 | 0.05 | 0.05 | 87 | 1007.8 |
| 20260505184506 | 53 | 273 | 0.0 | 0.0 | 0.00 | 0.05 | 0.05 | 88 | 1007.7 |
| 20260505183005 | 53 | 345 | 0.0 | 0.0 | 0.00 | 0.05 | 0.05 | 88 | 1007.8 |
| 20260505181506 | 53 | 271 | 0.0 | 0.0 | 0.00 | 0.05 | 0.05 | 88 | 1007.8 |
| 20260505180004 | 53 | 271 | 0.0 | 0.0 | 0.00 | 0.05 | 0.05 | 87 | 1007.7 |
| 20260505174504 | 53 | 271 | 0.0 | 1.0 | 0.01 | 0.05 | 0.05 | 87 | 1007.9 |
| 20260505173006 | 54 | 277 | 0.0 | 0.0 | 0.03 | 0.05 | 0.05 | 86 | 1007.8 |
| 20260505171503 | 54 | 327 | 0.0 | 0.0 | 0.03 | 0.05 | 0.05 | 86 | 1007.7 |
| 20260505170003 | 54 | 327 | 0.0 | 0.0 | 0.03 | 0.05 | 0.05 | 84 | 1007.6 |
| 20260505164505 | 54 | 327 | 0.0 | 1.0 | 0.02 | 0.04 | 0.04 | 83 | 1007.3 |
| 20260505163003 | 55 | 327 | 0.0 | 2.0 | 0.00 | 0.02 | 0.02 | 80 | 1007.7 |
| 20260505161502 | 56 | 346 | 0.0 | 3.0 | 0.00 | 0.02 | 0.02 | 78 | 1007.7 |
| 20260505153111 | 61 | 14 | 0.0 | 6.0 | 0.00 | 0.02 | 0.02 | 70 | 1006.8 |
| 20260505151559 | 62 | 265 | 0.0 | 3.0 | 0.00 | 0.02 | 0.02 | 67 | 1006.6 |
| 20260505124539 | 62 | 30 | 0.0 | 2.0 | 0.00 | 0.02 | 0.02 | 76 | 1006.7 |
| 20260505123029 | 62 | 350 | 0.0 | 1.0 | 0.00 | 0.02 | 0.02 | 76 | 1006.7 |
| 20260505121526 | 61 | 327 | 0.0 | 2.0 | 0.00 | 0.02 | 0.02 | 76 | 1006.9 |
| 20260505120028 | 61 | 22 | 0.0 | 0.0 | 0.00 | 0.02 | 0.02 | 79 | 1006.9 |
| 20260505114519 | 59 | 360 | 0.0 | 0.0 | 0.00 | 0.02 | 0.02 | 82 | 1006.9 |
| 20260505113015 | 58 | 9 | 0.0 | 0.0 | 0.00 | 0.02 | 0.02 | 86 | 1006.9 |
| 20260505111511 | 56 | 5 | 0.0 | 0.0 | 0.00 | 0.02 | 0.02 | 87 | 1007.0 |
| 20260505101601 | 53 | 271 | 0.0 | 0.0 | 0.01 | 0.02 | 0.02 | 88 | 1007.3 |
| 20260505100059 | 53 | 271 | 0.0 | 0.0 | 0.02 | 0.02 | 0.02 | 89 | 1007.3 |
| 20260505094554 | 53 | 271 | 0.0 | 1.0 | 0.02 | 0.02 | 0.02 | 89 | 1007.2 |
| 20260505093059 | 52 | 271 | 0.0 | 0.0 | 0.01 | 0.01 | 0.01 | 89 | 1007.3 |
| 20260505091552 | 52 | 271 | 0.0 | 0.0 | 0.01 | 0.01 | 0.01 | 88 | 1007.2 |
| 20260505090046 | 52 | 271 | 0.0 | 0.0 | 0.00 | 0.00 | 0.00 | 87 | 1007.2 |
| 20260505084547 | 52 | 271 | 0.0 | 0.0 | 0.00 | 0.00 | 0.00 | 87 | 1007.5 |
| 20260505083047 | 52 | 271 | 0.0 | 0.0 | 0.00 | 0.00 | 0.00 | 86 | 1007.6 |
| 20260505081534 | 52 | 271 | 0.0 | 0.0 | 0.00 | 0.00 | 0.00 | 86 | 1007.7 |
| 20260505080035 | 52 | 273 | 0.0 | 0.0 | 0.00 | 0.00 | 0.00 | 86 | 1007.7 |
| 20260505074530 | 51 | 272 | 0.0 | 2.0 | 0.00 | 0.00 | 0.00 | 86 | 1007.9 |
| 20260505073030 | 51 | 273 | 0.0 | 0.0 | 0.00 | 0.00 | 0.00 | 87 | 1008.2 |
| 20260505071525 | 51 | 273 | 0.0 | 0.0 | 0.00 | 0.00 | 0.00 | 87 | 1008.3 |
| 20260505070023 | 51 | 273 | 0.0 | 0.0 | 0.00 | 0.00 | 0.00 | 87 | 1008.3 |
| 20260505064521 | 50 | 273 | 0.0 | 0.0 | 0.00 | 0.00 | 0.00 | 88 | 1008.4 |
| 20260505063027 | 50 | 273 | 0.0 | 0.0 | 0.00 | 0.00 | 0.00 | 88 | 1008.4 |
| 20260505061520 | 49 | 273 | 0.0 | 0.0 | 0.00 | 0.00 | 0.00 | 89 | 1008.4 |
| 20260505060014 | 49 | 273 | 0.0 | 0.0 | 0.00 | 0.00 | 0.00 | 89 | 1008.4 |
| 20260505054513 | 48 | 273 | 0.0 | 0.0 | 0.00 | 0.00 | 0.00 | 89 | 1008.4 |
| 20260505053018 | 48 | 273 | 0.0 | 0.0 | 0.00 | 0.00 | 0.00 | 89 | 1008.2 |
| 20260505051516 | 48 | 273 | 0.0 | 0.0 | 0.00 | 0.00 | 0.00 | 89 | 1008.1 |
| 20260505041504 | 47 | 273 | 0.0 | 0.0 | 0.00 | 0.00 | 0.00 | 89 | 1008.3 |
| 20260505040001 | 47 | 273 | 0.0 | 0.0 | 0.00 | 0.00 | 0.00 | 89 | 1008.1 |
| 20260505034618 | 47 | 273 | 0.0 | 0.0 | 0.00 | 0.00 | 0.00 | 89 | 1008.2 |
| 20260505033058 | 47 | 273 | 0.0 | 0.0 | 0.00 | 0.00 | 0.00 | 89 | 1008.3 |
| 20260505031557 | 47 | 273 | 0.0 | 0.0 | 0.00 | 0.00 | 0.00 | 88 | 1008.5 |
| 20260505030055 | 47 | 273 | 0.0 | 0.0 | 0.00 | 0.00 | 0.00 | 88 | 1008.6 |
| 20260505024553 | 47 | 273 | 0.0 | 0.0 | 0.00 | 0.00 | 0.00 | 88 | 1008.7 |
| 20260505023053 | 47 | 273 | 0.0 | 0.0 | 0.00 | 0.00 | 0.00 | 88 | 1008.8 |
| 20260505021552 | 48 | 273 | 0.0 | 0.0 | 0.00 | 0.00 | 0.00 | 88 | 1008.9 |
| 20260505020051 | 48 | 273 | 0.0 | 0.0 | 0.00 | 0.00 | 0.00 | 88 | 1008.9 |
| 20260505014550 | 48 | 273 | 0.0 | 0.0 | 0.00 | 0.00 | 0.00 | 88 | 1008.9 |
| 20260505013048 | 48 | 273 | 0.0 | 0.0 | 0.00 | 0.00 | 0.00 | 88 | 1009.0 |